Hourly Weather Bolshoe Varkovo

Today, 30 July, Friday

Time Temperature Precipitation Wind Pressure Humidity
00:00 +22°C° 0 mm 1 mps 742 mmHg 72%
01:00 +22°C° 0 mm 1 mps 742 mmHg 74%
02:00 +22°C° 0 mm 1 mps 742 mmHg 76%
03:00 +20°C° 0 mm 2 mps 742 mmHg 78%
04:00 +21°C° 0.1 mm 2 mps 741 mmHg 79%
05:00 +21°C° 0.1 mm 2 mps 741 mmHg 79%
06:00 +21°C° 0.1 mm 2 mps 741 mmHg 80%
07:00 +23°C° 0.1 mm 2 mps 741 mmHg 75%
08:00 +25°C° 0.1 mm 2 mps 741 mmHg 69%
09:00 +26°C° 0.1 mm 2 mps 741 mmHg 64%
10:00 +28°C° 0 mm 2 mps 741 mmHg 59%
11:00 +29°C° 0 mm 3 mps 740 mmHg 54%
12:00 +32°C° 0 mm 4 mps 740 mmHg 48%
13:00 +30°C° 0.2 mm 4 mps 740 mmHg 50%
14:00 +30°C° 0.2 mm 5 mps 740 mmHg 51%
15:00 +30°C° 0.2 mm 5 mps 740 mmHg 53%
16:00 +29°C° 0 mm 6 mps 740 mmHg 56%
17:00 +28°C° 0 mm 6 mps 740 mmHg 58%
18:00 +28°C° 0 mm 6 mps 740 mmHg 60%
19:00 +26°C° 0 mm 5 mps 740 mmHg 67%
20:00 +23°C° 0 mm 4 mps 741 mmHg 73%
21:00 +22°C° 0 mm 3 mps 741 mmHg 79%
22:00 +21°C° 0 mm 3 mps 741 mmHg 81%
23:00 +21°C° 0 mm 3 mps 741 mmHg 83%

Tomorrow, 31 July, Saturday

Time Temperature Precipitation Wind Pressure Humidity
00:00 +20°C° 0 mm 3 mps 741 mmHg 85%
01:00 +19°C° 0 mm 3 mps 742 mmHg 85%
02:00 +19°C° 0 mm 3 mps 742 mmHg 84%
03:00 +18°C° 0 mm 3 mps 742 mmHg 84%
04:00 +18°C° 0 mm 3 mps 742 mmHg 82%
05:00 +18°C° 0 mm 3 mps 742 mmHg 80%
06:00 +18°C° 0 mm 3 mps 742 mmHg 78%
07:00 +20°C° 0 mm 4 mps 743 mmHg 68%
08:00 +22°C° 0 mm 4 mps 743 mmHg 59%
09:00 +25°C° 0 mm 5 mps 743 mmHg 49%
10:00 +27°C° 0 mm 5 mps 743 mmHg 46%
11:00 +28°C° 0 mm 6 mps 743 mmHg 43%
12:00 +29°C° 0 mm 6 mps 743 mmHg 40%
13:00 +29°C° 0 mm 6 mps 743 mmHg 39%
14:00 +30°C° 0 mm 7 mps 743 mmHg 39%
15:00 +30°C° 0 mm 7 mps 743 mmHg 38%
16:00 +30°C° 0 mm 6 mps 743 mmHg 39%
17:00 +30°C° 0 mm 6 mps 743 mmHg 40%
18:00 +29°C° 0 mm 5 mps 743 mmHg 41%
19:00 +27°C° 0 mm 4 mps 744 mmHg 46%
20:00 +25°C° 0 mm 4 mps 744 mmHg 51%
21:00 +22°C° 0 mm 3 mps 744 mmHg 57%
22:00 +21°C° 0 mm 3 mps 745 mmHg 58%
23:00 +21°C° 0 mm 2 mps 745 mmHg 59%

Day after tomorrow, 1 August, Sunday

Time Temperature Precipitation Wind Pressure Humidity
00:00 +20°C° 0 mm 2 mps 745 mmHg 61%
01:00 +20°C° 0 mm 2 mps 745 mmHg 61%
02:00 +19°C° 0 mm 2 mps 745 mmHg 62%
03:00 +19°C° 0 mm 2 mps 745 mmHg 62%
04:00 +19°C° 0 mm 2 mps 745 mmHg 63%
05:00 +20°C° 0 mm 2 mps 746 mmHg 64%
06:00 +20°C° 0 mm 2 mps 746 mmHg 65%
07:00 +22°C° 0 mm 3 mps 746 mmHg 58%
08:00 +26°C° 0 mm 3 mps 746 mmHg 52%
09:00 +28°C° 0 mm 4 mps 746 mmHg 45%
10:00 +30°C° 0 mm 4 mps 746 mmHg 41%
11:00 +32°C° 0 mm 4 mps 745 mmHg 37%
12:00 +34°C° 0 mm 5 mps 745 mmHg 33%
13:00 +34°C° 0 mm 5 mps 745 mmHg 31%
14:00 +35°C° 0 mm 6 mps 745 mmHg 29%
15:00 +36°C° 0 mm 6 mps 744 mmHg 27%
16:00 +35°C° 0 mm 6 mps 744 mmHg 29%
17:00 +35°C° 0 mm 5 mps 744 mmHg 31%
18:00 +34°C° 0 mm 4 mps 744 mmHg 33%
19:00 +32°C° 0 mm 4 mps 744 mmHg 36%
20:00 +30°C° 0 mm 3 mps 744 mmHg 40%
21:00 +28°C° 0 mm 3 mps 744 mmHg 43%
22:00 +27°C° 0 mm 3 mps 744 mmHg 43%
23:00 +27°C° 0 mm 4 mps 743 mmHg 43%

2 August, Monday

Time Temperature Precipitation Wind Pressure Humidity
00:00 +27°C° 0 mm 4 mps 743 mmHg 43%
01:00 +26°C° 0 mm 4 mps 743 mmHg 47%
02:00 +25°C° 0 mm 4 mps 743 mmHg 52%
03:00 +24°C° 0 mm 3 mps 743 mmHg 57%
04:00 +24°C° 0 mm 3 mps 743 mmHg 60%
05:00 +24°C° 0 mm 2 mps 743 mmHg 63%
06:00 +24°C° 0 mm 2 mps 743 mmHg 66%
07:00 +25°C° 0 mm 2 mps 743 mmHg 62%
08:00 +27°C° 0 mm 2 mps 743 mmHg 57%
09:00 +29°C° 0 mm 3 mps 743 mmHg 53%
10:00 +31°C° 0 mm 3 mps 743 mmHg 48%
11:00 +33°C° 0 mm 4 mps 743 mmHg 42%
12:00 +35°C° 0 mm 5 mps 743 mmHg 37%
13:00 +35°C° 0 mm 5 mps 742 mmHg 35%
14:00 +35°C° 0 mm 5 mps 742 mmHg 33%
15:00 +36°C° 0 mm 6 mps 742 mmHg 30%
16:00 +35°C° 0 mm 5 mps 741 mmHg 33%
17:00 +34°C° 0 mm 5 mps 741 mmHg 36%
18:00 +34°C° 0 mm 4 mps 741 mmHg 39%
19:00 +32°C° 0 mm 4 mps 741 mmHg 43%
20:00 +29°C° 0 mm 4 mps 741 mmHg 48%
21:00 +27°C° 0 mm 4 mps 741 mmHg 53%
22:00 +26°C° 0.2 mm 4 mps 741 mmHg 60%
23:00 +25°C° 0.2 mm 4 mps 741 mmHg 66%

3 August, Tuesday

Time Temperature Precipitation Wind Pressure Humidity
00:00 +23°C° 0.2 mm 4 mps 741 mmHg 73%
01:00 +23°C° 0.6 mm 4 mps 741 mmHg 78%
02:00 +22°C° 0.6 mm 3 mps 741 mmHg 82%
03:00 +21°C° 0.6 mm 2 mps 740 mmHg 87%
04:00 +21°C° 0.5 mm 2 mps 741 mmHg 89%
05:00 +21°C° 0.5 mm 3 mps 741 mmHg 90%
06:00 +21°C° 0.5 mm 4 mps 741 mmHg 92%
07:00 +21°C° 0.6 mm 4 mps 742 mmHg 92%
08:00 +21°C° 0.6 mm 3 mps 742 mmHg 92%
09:00 +21°C° 0.6 mm 3 mps 742 mmHg 92%
10:00 +22°C° 0.3 mm 3 mps 743 mmHg 85%
11:00 +23°C° 0.3 mm 4 mps 743 mmHg 78%
12:00 +25°C° 0.3 mm 5 mps 743 mmHg 70%
13:00 +25°C° 0.3 mm 4 mps 744 mmHg 69%
14:00 +25°C° 0.3 mm 4 mps 744 mmHg 67%
15:00 +23°C° 0.3 mm 4 mps 744 mmHg 66%
16:00 +25°C° 0.1 mm 4 mps 744 mmHg 62%
17:00 +25°C° 0.1 mm 4 mps 745 mmHg 57%
18:00 +25°C° 0.1 mm 4 mps 745 mmHg 53%
19:00 +24°C° 0 mm 3 mps 745 mmHg 57%
20:00 +22°C° 0 mm 3 mps 746 mmHg 60%
21:00 +21°C° 0 mm 3 mps 746 mmHg 63%
22:00 +20°C° 0 mm 3 mps 746 mmHg 69%
23:00 +19°C° 0 mm 3 mps 747 mmHg 75%

4 August, Wednesday

Time Temperature Precipitation Wind Pressure Humidity
00:00 +18°C° 0 mm 2 mps 747 mmHg 80%
01:00 +17°C° 0 mm 2 mps 747 mmHg 81%
02:00 +17°C° 0 mm 2 mps 747 mmHg 82%
03:00 +16°C° 0 mm 2 mps 748 mmHg 83%
04:00 +16°C° 0 mm 2 mps 748 mmHg 82%
05:00 +16°C° 0 mm 2 mps 748 mmHg 80%
06:00 +16°C° 0 mm 2 mps 749 mmHg 79%
07:00 +19°C° 0 mm 2 mps 749 mmHg 70%
08:00 +21°C° 0 mm 2 mps 749 mmHg 61%
09:00 +24°C° 0 mm 2 mps 749 mmHg 52%
10:00 +25°C° 0 mm 3 mps 749 mmHg 47%
11:00 +26°C° 0 mm 3 mps 749 mmHg 42%
12:00 +27°C° 0 mm 3 mps 749 mmHg 37%
13:00 +27°C° 0 mm 3 mps 749 mmHg 36%
14:00 +27°C° 0 mm 3 mps 749 mmHg 36%
15:00 +27°C° 0 mm 3 mps 749 mmHg 35%
16:00 +26°C° 0 mm 3 mps 749 mmHg 38%
17:00 +26°C° 0 mm 4 mps 750 mmHg 41%
18:00 +25°C° 0 mm 4 mps 750 mmHg 44%
19:00 +22°C° 0 mm 3 mps 750 mmHg 49%
20:00 +21°C° 0 mm 3 mps 750 mmHg 54%
21:00 +19°C° 0 mm 2 mps 750 mmHg 60%
22:00 +19°C° 0 mm 2 mps 750 mmHg 62%
23:00 +18°C° 0 mm 2 mps 750 mmHg 64%
Show more

We Need Your Consent

Meteoprog and our Service Providers may store and access personal data such as cookies, device identifiers or other similar technologies on your device and process such data to personalise content and ads, as well as provide social media features and to analyse the traffic.

  • Store and/or access information on your device

    Cookies, device identifiers or other information can be stored or accessed on your device for the purposes indicated above.

  • Personalised ads and content, ad and content measurement, audience insights, and products development

    Ads and content can be personalised based on a profile. More data can be added to better personalise ads and content. Ad and content performance can be measured. Insights about the audience who saw the ads and content can be derived. Such data can be used to develop or improve user’s experience, systems and software.

By clicking ‘I Agree’ you will allow the use of indicated cookies, device identifiers, web beacons or other similar technologies. Your settings can be changed in the browser on your device.

For certain purposes, legitimate interests may be relied on, rather than consent. You can read more about this in our Privacy and Cookie Policy.